{"data":{"norad_id":67942,"epoch":"2026-09-19T04:33:31.728384Z","epoch_age_seconds":176410,"freshness":"STALE","line1":"1 67942U 26037L   26262.18995056  .00016171  00000+0  59599-3 0  9992","line2":"2 67942  43.0042 177.9578 0001121 274.4025  85.6699 15.27572698 32938","mean_motion":15.27572698,"eccentricity":0.0001121,"inclination_deg":43.0042,"raan_deg":177.9578,"arg_perigee_deg":274.4025,"mean_anomaly_deg":85.6699,"bstar":0.00059599,"rev_number":3293,"period_min":94.267199321207,"perigee_km":482.30181952921,"apogee_km":483.84010235405,"semimajor_km":6861.2079609416,"source":"CELESTRAK","updated_at":"2026-09-20T09:00:43.708749Z"}}